| time (UTC) | temp F | wind direction | speed knots | gust knots | rain 1hr in | rain 24hr in | rain mn in | humidity % | barometer mb |
| 20260506211825 | 74 | 283 | 1.7 | 7.0 | 0.00 | 0.00 | 0.00 | 57 | 1017.6 |
| 20260506210822 | 74 | 344 | 1.7 | 5.2 | 0.00 | 0.00 | 0.00 | 57 | 1017.6 |
| 20260506210322 | 74 | 316 | 1.7 | 4.3 | 0.00 | 0.00 | 0.00 | 56 | 1017.6 |
| 20260506205822 | 73 | 0 | 1.7 | 5.2 | 0.00 | 0.00 | 0.00 | 57 | 1017.7 |
| 20260506205320 | 74 | 45 | 1.7 | 6.1 | 0.00 | 0.00 | 0.00 | 56 | 1017.7 |
| 20260506204821 | 73 | 12 | 1.7 | 6.1 | 0.00 | 0.00 | 0.00 | 56 | 1017.7 |
| 20260506204321 | 73 | 11 | 1.7 | 5.2 | 0.00 | 0.00 | 0.00 | 57 | 1017.8 |
| 20260506203822 | 73 | 316 | 1.7 | 3.5 | 0.00 | 0.00 | 0.00 | 59 | 1017.8 |
| 20260506203540 | 72 | 61 | 1.7 | 7.0 | 0.00 | 0.00 | 0.00 | 59 | 1017.9 |
| 20260506202821 | 72 | 0 | 1.7 | 7.0 | 0.00 | 0.00 | 0.00 | 60 | 1018.0 |
| 20260506202321 | 73 | 15 | 1.7 | 6.1 | 0.00 | 0.00 | 0.00 | 58 | 1018.1 |
| 20260506201822 | 73 | 34 | 0.9 | 4.3 | 0.00 | 0.00 | 0.00 | 57 | 1018.1 |
| 20260506201322 | 72 | 60 | 1.7 | 6.1 | 0.00 | 0.00 | 0.00 | 58 | 1018.2 |
| 20260506201045 | 72 | 0 | 2.6 | 6.1 | 0.00 | 0.00 | 0.00 | 58 | 1018.2 |
| 20260506200536 | 72 | 358 | 2.6 | 7.0 | 0.00 | 0.00 | 0.00 | 58 | 1018.3 |
| 20260506195818 | 72 | 318 | 2.6 | 7.0 | 0.00 | 0.00 | 0.00 | 59 | 1018.3 |
| 20260506195318 | 72 | 45 | 1.7 | 6.1 | 0.00 | 0.00 | 0.00 | 59 | 1018.3 |
| 20260506194818 | 72 | 272 | 1.7 | 4.3 | 0.00 | 0.00 | 0.00 | 57 | 1018.3 |
| 20260506194534 | 71 | 342 | 1.7 | 6.1 | 0.00 | 0.00 | 0.00 | 60 | 1018.4 |
| 20260506193818 | 71 | 98 | 2.6 | 7.8 | 0.00 | 0.00 | 0.00 | 57 | 1018.5 |
| 20260506193319 | 71 | 332 | 3.5 | 7.8 | 0.00 | 0.00 | 0.00 | 58 | 1018.5 |
| 20260506192818 | 72 | 26 | 2.6 | 7.8 | 0.00 | 0.00 | 0.00 | 55 | 1018.6 |
| 20260506192318 | 71 | 43 | 2.6 | 7.8 | 0.00 | 0.00 | 0.00 | 56 | 1018.6 |
| 20260506191818 | 71 | 100 | 2.6 | 7.0 | 0.00 | 0.00 | 0.00 | 58 | 1018.6 |
| 20260506191315 | 72 | 21 | 2.6 | 7.0 | 0.00 | 0.00 | 0.00 | 57 | 1018.7 |
| 20260506191036 | 73 | 34 | 1.7 | 7.0 | 0.00 | 0.00 | 0.00 | 58 | 1018.7 |
| 20260506190316 | 72 | 11 | 1.7 | 5.2 | 0.00 | 0.00 | 0.00 | 57 | 1018.9 |
| 20260506185813 | 72 | 137 | 1.7 | 5.2 | 0.00 | 0.00 | 0.00 | 60 | 1018.9 |
| 20260506185312 | 71 | 32 | 1.7 | 4.3 | 0.00 | 0.00 | 0.00 | 59 | 1018.9 |
| 20260506184813 | 70 | 334 | 1.7 | 5.2 | 0.00 | 0.00 | 0.00 | 61 | 1018.9 |
| 20260506184534 | 70 | 5 | 2.6 | 7.0 | 0.00 | 0.00 | 0.00 | 63 | 1018.9 |
| 20260506183814 | 69 | 27 | 2.6 | 7.0 | 0.00 | 0.00 | 0.00 | 65 | 1019.0 |
| 20260506183313 | 70 | 61 | 1.7 | 6.1 | 0.00 | 0.00 | 0.00 | 64 | 1018.9 |
| 20260506183033 | 70 | 8 | 1.7 | 5.2 | 0.00 | 0.00 | 0.00 | 64 | 1019.0 |
| 20260506182314 | 70 | 316 | 0.9 | 5.2 | 0.00 | 0.00 | 0.00 | 65 | 1019.0 |
| 20260506181810 | 69 | 322 | 0.9 | 5.2 | 0.00 | 0.00 | 0.00 | 65 | 1019.1 |
| 20260506181311 | 68 | 256 | 0.9 | 4.3 | 0.00 | 0.00 | 0.00 | 65 | 1019.0 |
| 20260506180810 | 67 | 0 | 1.7 | 4.3 | 0.00 | 0.00 | 0.00 | 67 | 1019.1 |
| 20260506180308 | 67 | 77 | 1.7 | 3.5 | 0.00 | 0.00 | 0.00 | 68 | 1019.0 |
| 20260506175808 | 67 | 70 | 1.7 | 6.1 | 0.00 | 0.00 | 0.00 | 68 | 1019.0 |
| 20260506175310 | 67 | 59 | 1.7 | 6.1 | 0.00 | 0.00 | 0.00 | 68 | 1019.0 |
| 20260506174808 | 67 | 31 | 1.7 | 4.3 | 0.00 | 0.00 | 0.00 | 68 | 1019.1 |
| 20260506174529 | 67 | 328 | 1.7 | 5.2 | 0.00 | 0.00 | 0.00 | 68 | 1019.1 |
| 20260506173808 | 67 | 35 | 0.9 | 5.2 | 0.00 | 0.00 | 0.00 | 68 | 1019.1 |
| 20260506173309 | 66 | 346 | 0.9 | 4.3 | 0.00 | 0.00 | 0.00 | 70 | 1019.1 |
| 20260506172808 | 65 | 348 | 1.7 | 4.3 | 0.00 | 0.00 | 0.00 | 71 | 1019.2 |
| 20260506172308 | 66 | 282 | 1.7 | 4.3 | 0.00 | 0.00 | 0.00 | 72 | 1019.2 |
| 20260506171805 | 66 | 287 | 0.9 | 3.5 | 0.00 | 0.00 | 0.00 | 72 | 1019.3 |
| 20260506170806 | 65 | 36 | 1.7 | 4.3 | 0.00 | 0.00 | 0.00 | 70 | 1019.3 |
| 20260506170306 | 65 | 43 | 1.7 | 4.3 | 0.00 | 0.00 | 0.00 | 71 | 1019.3 |
| 20260506165805 | 64 | 0 | 0.9 | 3.5 | 0.00 | 0.00 | 0.00 | 72 | 1019.3 |
| 20260506165306 | 65 | 283 | 0.9 | 3.5 | 0.00 | 0.00 | 0.00 | 72 | 1019.3 |
| 20260506164806 | 64 | 0 | 0.9 | 3.5 | 0.00 | 0.00 | 0.00 | 71 | 1019.3 |
| 20260506164306 | 64 | 82 | 0.9 | 2.6 | 0.00 | 0.00 | 0.00 | 72 | 1019.3 |
| 20260506163806 | 65 | 37 | 0.9 | 2.6 | 0.00 | 0.00 | 0.00 | 72 | 1019.4 |
| 20260506163305 | 64 | 347 | 0.9 | 3.5 | 0.00 | 0.00 | 0.00 | 73 | 1019.4 |
| 20260506162804 | 64 | 286 | 0.9 | 3.5 | 0.00 | 0.00 | 0.00 | 74 | 1019.4 |
| 20260506162307 | 64 | 284 | 0.9 | 2.6 | 0.00 | 0.00 | 0.00 | 73 | 1019.4 |
| 20260506161804 | 63 | 300 | 0.9 | 2.6 | 0.00 | 0.00 | 0.00 | 75 | 1019.4 |
| 20260506161304 | 63 | 282 | 0.9 | 2.6 | 0.00 | 0.00 | 0.00 | 72 | 1019.4 |
| 20260506160812 | 63 | 173 | 0.9 | 3.5 | 0.00 | 0.00 | 0.00 | 73 | 1019.3 |
| 20260506160303 | 62 | 6 | 0.9 | 4.3 | 0.00 | 0.00 | 0.00 | 75 | 1019.4 |
| 20260506155804 | 63 | 294 | 0.9 | 4.3 | 0.00 | 0.00 | 0.00 | 75 | 1019.4 |
| 20260506155306 | 63 | 292 | 0.9 | 2.6 | 0.00 | 0.00 | 0.00 | 74 | 1019.5 |
| 20260506154804 | 63 | 117 | 0.9 | 3.5 | 0.00 | 0.00 | 0.00 | 73 | 1019.4 |
| 20260506154533 | 62 | 0 | 0.9 | 4.3 | 0.00 | 0.00 | 0.00 | 75 | 1019.5 |
| 20260506153804 | 62 | 0 | 0.9 | 4.3 | 0.00 | 0.00 | 0.00 | 75 | 1019.5 |
| 20260506153526 | 62 | 55 | 0.9 | 3.5 | 0.00 | 0.00 | 0.00 | 77 | 1019.5 |
| 20260506152802 | 62 | 110 | 0.9 | 2.6 | 0.00 | 0.00 | 0.00 | 74 | 1019.5 |
| 20260506152305 | 61 | 60 | 0.9 | 2.6 | 0.00 | 0.00 | 0.00 | 76 | 1019.5 |
| 20260506151802 | 61 | 298 | 0.9 | 2.6 | 0.00 | 0.00 | 0.00 | 77 | 1019.5 |
| 20260506151302 | 61 | 89 | 0.9 | 1.7 | 0.00 | 0.00 | 0.00 | 77 | 1019.4 |
| 20260506150758 | 60 | 0 | 0.0 | 1.7 | 0.00 | 0.00 | 0.00 | 79 | 1019.5 |
| 20260506150304 | 60 | 4 | 0.0 | 1.7 | 0.00 | 0.00 | 0.00 | 79 | 1019.5 |
| 20260506150021 | 59 | 0 | 0.0 | 1.7 | 0.00 | 0.00 | 0.00 | 80 | 1019.5 |
| 20260506145259 | 59 | 334 | 0.0 | 1.7 | 0.00 | 0.00 | 0.00 | 81 | 1019.5 |
| 20260506144759 | 58 | 0 | 0.0 | 1.7 | 0.00 | 0.00 | 0.00 | 82 | 1019.4 |
| 20260506144258 | 57 | 212 | 0.0 | 1.7 | 0.00 | 0.00 | 0.00 | 84 | 1019.5 |
| 20260506144019 | 57 | 0 | 0.0 | 1.7 | 0.00 | 0.00 | 0.00 | 85 | 1019.4 |
| 20260506143520 | 56 | 320 | 0.0 | 1.7 | 0.00 | 0.00 | 0.00 | 85 | 1019.4 |
| 20260506142754 | 55 | 105 | 0.0 | 1.7 | 0.00 | 0.00 | 0.00 | 88 | 1019.4 |
| 20260506142255 | 55 | 0 | 0.0 | 0.9 | 0.00 | 0.00 | 0.00 | 92 | 1019.4 |
| 20260506141753 | 54 | 59 | 0.0 | 0.9 | 0.00 | 0.00 | 0.00 | 94 | 1019.4 |
| 20260506141239 | 53 | 0 | 0.0 | 0.9 | 0.00 | 0.00 | 0.00 | 95 | 1019.3 |
| 20260506140739 | 53 | 0 | 0.0 | 0.9 | 0.00 | 0.00 | 0.00 | 95 | 1019.3 |
| 20260506140239 | 53 | 0 | 0.0 | 0.9 | 0.00 | 0.00 | 0.00 | 95 | 1019.3 |
| 20260506135738 | 52 | 0 | 0.0 | 0.9 | 0.00 | 0.00 | 0.00 | 95 | 1019.2 |
| 20260506135239 | 52 | 87 | 0.0 | 0.9 | 0.00 | 0.00 | 0.00 | 95 | 1019.1 |
| 20260506135002 | 52 | 194 | 0.0 | 0.9 | 0.00 | 0.00 | 0.00 | 95 | 1019.1 |
| 20260506134240 | 52 | 152 | 0.0 | 1.7 | 0.00 | 0.00 | 0.00 | 95 | 1019.1 |
| 20260506134003 | 53 | 246 | 0.0 | 1.7 | 0.00 | 0.00 | 0.00 | 95 | 1019.1 |
| 20260506133239 | 53 | 0 | 0.0 | 0.9 | 0.00 | 0.00 | 0.00 | 95 | 1019.1 |
| 20260506132726 | 53 | 87 | 0.0 | 0.9 | 0.00 | 0.00 | 0.00 | 95 | 1019.1 |
| 20260506132225 | 53 | 0 | 0.0 | 0.9 | 0.00 | 0.00 | 0.00 | 95 | 1019.0 |
| 20260506131712 | 53 | 0 | 0.0 | 0.9 | 0.00 | 0.00 | 0.00 | 94 | 1019.0 |
| 20260506131211 | 53 | 0 | 0.0 | 0.9 | 0.00 | 0.00 | 0.00 | 94 | 1018.9 |
| 20260506130711 | 53 | 0 | 0.0 | 0.9 | 0.00 | 0.00 | 0.00 | 94 | 1018.9 |
| 20260506130211 | 53 | 0 | 0.0 | 0.9 | 0.00 | 0.00 | 0.00 | 94 | 1018.7 |
| 20260506125709 | 53 | 249 | 0.0 | 0.9 | 0.00 | 0.00 | 0.00 | 94 | 1018.7 |
| 20260506125210 | 53 | 0 | 0.0 | 0.9 | 0.00 | 0.00 | 0.00 | 94 | 1018.7 |
| 20260506124710 | 53 | 0 | 0.0 | 0.9 | 0.00 | 0.00 | 0.00 | 94 | 1018.6 |
| 20260506124210 | 53 | 0 | 0.0 | 0.9 | 0.00 | 0.00 | 0.00 | 94 | 1018.6 |
| 20260506123709 | 53 | 0 | 0.0 | 0.9 | 0.00 | 0.00 | 0.00 | 94 | 1018.6 |
| 20260506123427 | 53 | 0 | 0.0 | 0.9 | 0.00 | 0.00 | 0.00 | 94 | 1018.6 |
| 20260506122709 | 53 | 0 | 0.0 | 0.9 | 0.00 | 0.00 | 0.00 | 94 | 1018.6 |
| 20260506122209 | 53 | 0 | 0.0 | 0.0 | 0.00 | 0.00 | 0.00 | 94 | 1018.6 |
| 20260506121655 | 53 | 0 | 0.0 | 0.9 | 0.00 | 0.00 | 0.00 | 94 | 1018.5 |
| 20260506121155 | 53 | 0 | 0.0 | 0.9 | 0.00 | 0.00 | 0.00 | 94 | 1018.5 |
| 20260506120656 | 53 | 26 | 0.0 | 0.9 | 0.00 | 0.00 | 0.00 | 94 | 1018.5 |
| 20260506120155 | 53 | 256 | 0.0 | 0.9 | 0.00 | 0.00 | 0.00 | 94 | 1018.5 |
| 20260506115656 | 53 | 0 | 0.0 | 0.0 | 0.00 | 0.00 | 0.00 | 94 | 1018.5 |
| 20260506115156 | 53 | 0 | 0.0 | 0.9 | 0.00 | 0.00 | 0.00 | 94 | 1018.5 |
| 20260506114656 | 53 | 0 | 0.0 | 0.9 | 0.00 | 0.00 | 0.00 | 94 | 1018.5 |
| 20260506114142 | 53 | 10 | 0.0 | 0.9 | 0.00 | 0.00 | 0.00 | 94 | 1018.5 |
| 20260506113627 | 53 | 314 | 0.0 | 0.9 | 0.00 | 0.00 | 0.00 | 94 | 1018.4 |
| 20260506113127 | 53 | 15 | 0.0 | 0.0 | 0.00 | 0.00 | 0.00 | 94 | 1018.3 |
| 20260506112627 | 53 | 0 | 0.0 | 0.0 | 0.00 | 0.00 | 0.00 | 94 | 1018.2 |
| 20260506112337 | 53 | 322 | 0.0 | 0.9 | 0.00 | 0.00 | 0.00 | 94 | 1018.2 |
| 20260506111613 | 53 | 65 | 0.0 | 0.9 | 0.00 | 0.00 | 0.00 | 94 | 1018.2 |
| 20260506111114 | 53 | 239 | 0.0 | 0.9 | 0.00 | 0.00 | 0.00 | 94 | 1018.1 |
| 20260506110613 | 53 | 125 | 0.0 | 0.9 | 0.00 | 0.00 | 0.00 | 95 | 1018.1 |
| 20260506110112 | 53 | 272 | 0.0 | 0.9 | 0.00 | 0.00 | 0.00 | 94 | 1018.1 |
| 20260506105612 | 53 | 0 | 0.0 | 0.9 | 0.00 | 0.00 | 0.00 | 95 | 1018.1 |
| 20260506105058 | 52 | 33 | 0.0 | 0.9 | 0.00 | 0.00 | 0.00 | 95 | 1018.1 |
| 20260506104559 | 52 | 0 | 0.0 | 0.9 | 0.00 | 0.00 | 0.00 | 95 | 1018.1 |
| 20260506104058 | 52 | 0 | 0.0 | 0.9 | 0.00 | 0.00 | 0.00 | 95 | 1018.0 |
| 20260506103557 | 52 | 0 | 0.0 | 0.9 | 0.00 | 0.00 | 0.00 | 96 | 1018.1 |
| 20260506103057 | 52 | 0 | 0.0 | 0.9 | 0.00 | 0.00 | 0.00 | 96 | 1018.1 |
| 20260506102542 | 52 | 12 | 0.0 | 0.9 | 0.00 | 0.00 | 0.00 | 96 | 1018.1 |
| 20260506102043 | 52 | 341 | 0.0 | 0.9 | 0.00 | 0.00 | 0.00 | 96 | 1018.0 |
| 20260506101542 | 52 | 0 | 0.0 | 0.9 | 0.00 | 0.00 | 0.00 | 96 | 1018.0 |
| 20260506101042 | 52 | 0 | 0.0 | 0.9 | 0.00 | 0.00 | 0.00 | 96 | 1018.0 |
| 20260506100543 | 52 | 0 | 0.0 | 0.9 | 0.00 | 0.00 | 0.00 | 96 | 1018.0 |
| 20260506100043 | 52 | 300 | 0.0 | 0.9 | 0.00 | 0.00 | 0.00 | 97 | 1018.0 |
| 20260506095542 | 51 | 215 | 0.0 | 0.9 | 0.00 | 0.00 | 0.00 | 97 | 1018.0 |
| 20260506095043 | 51 | 0 | 0.0 | 0.9 | 0.00 | 0.00 | 0.00 | 97 | 1018.1 |
| 20260506094543 | 51 | 0 | 0.0 | 0.0 | 0.00 | 0.00 | 0.00 | 97 | 1018.1 |
| 20260506094044 | 51 | 0 | 0.0 | 0.9 | 0.00 | 0.00 | 0.00 | 97 | 1018.1 |
| 20260506093545 | 51 | 0 | 0.0 | 0.9 | 0.00 | 0.00 | 0.00 | 97 | 1018.0 |
| 20260506093248 | 51 | 174 | 0.0 | 0.9 | 0.00 | 0.00 | 0.00 | 97 | 1018.0 |
| 20260506092529 | 51 | 230 | 0.0 | 0.9 | 0.00 | 0.00 | 0.00 | 97 | 1018.0 |
| 20260506092029 | 50 | 0 | 0.0 | 1.7 | 0.00 | 0.00 | 0.00 | 97 | 1018.1 |
| 20260506091528 | 50 | 0 | 0.0 | 1.7 | 0.00 | 0.00 | 0.00 | 97 | 1018.1 |
| 20260506091029 | 50 | 318 | 0.0 | 1.7 | 0.00 | 0.00 | 0.00 | 97 | 1018.1 |
| 20260506090529 | 50 | 0 | 0.0 | 3.5 | 0.00 | 0.00 | 0.00 | 97 | 1018.2 |
| 20260506090029 | 50 | 40 | 0.0 | 3.5 | 0.00 | 0.01 | 0.00 | 97 | 1018.1 |
| 20260506085529 | 50 | 232 | 0.0 | 1.7 | 0.00 | 0.01 | 0.00 | 97 | 1018.0 |
| 20260506085253 | 49 | 0 | 0.0 | 1.7 | 0.00 | 0.01 | 0.00 | 97 | 1018.0 |
| 20260506084529 | 49 | 198 | 0.0 | 0.9 | 0.00 | 0.02 | 0.00 | 97 | 1018.0 |
| 20260506084029 | 49 | 0 | 0.0 | 0.9 | 0.00 | 0.02 | 0.00 | 97 | 1018.0 |
| 20260506083516 | 49 | 231 | 0.0 | 0.9 | 0.00 | 0.02 | 0.00 | 97 | 1018.0 |
| 20260506083016 | 49 | 0 | 0.0 | 0.9 | 0.00 | 0.02 | 0.00 | 97 | 1018.0 |
| 20260506082516 | 50 | 176 | 0.0 | 0.9 | 0.00 | 0.02 | 0.00 | 97 | 1018.0 |
| 20260506082016 | 50 | 0 | 0.0 | 1.7 | 0.00 | 0.02 | 0.00 | 97 | 1018.0 |
| 20260506081513 | 50 | 226 | 0.0 | 1.7 | 0.00 | 0.02 | 0.00 | 97 | 1018.1 |
| 20260506081014 | 50 | 0 | 0.0 | 0.9 | 0.00 | 0.03 | 0.00 | 97 | 1018.1 |
| 20260506080734 | 50 | 280 | 0.0 | 1.7 | 0.00 | 0.05 | 0.00 | 97 | 1018.1 |
| 20260506073501 | 50 | 243 | 0.0 | 3.5 | 0.00 | 0.11 | 0.00 | 97 | 1017.9 |
| 20260506073001 | 50 | 216 | 0.0 | 0.9 | 0.00 | 0.12 | 0.00 | 96 | 1017.9 |
| 20260506072450 | 50 | 0 | 0.0 | 0.9 | 0.00 | 0.13 | 0.00 | 96 | 1017.8 |
| 20260506071949 | 50 | 0 | 0.0 | 2.6 | 0.00 | 0.14 | 0.00 | 96 | 1017.8 |
| 20260506071449 | 50 | 224 | 0.0 | 2.6 | 0.00 | 0.14 | 0.00 | 96 | 1017.7 |
| 20260506070950 | 50 | 0 | 0.0 | 3.5 | 0.00 | 0.15 | 0.00 | 96 | 1017.6 |
| 20260506070450 | 50 | 237 | 0.0 | 3.5 | 0.00 | 0.15 | 0.00 | 96 | 1017.5 |
| 20260506062445 | 51 | 351 | 0.9 | 3.5 | 0.00 | 0.20 | 0.17 | 95 | 1017.3 |
| 20260506061942 | 51 | 209 | 0.9 | 3.5 | 0.00 | 0.20 | 0.17 | 95 | 1017.2 |
| 20260506061442 | 51 | 313 | 0.9 | 3.5 | 0.00 | 0.20 | 0.17 | 95 | 1017.2 |
| 20260506060942 | 51 | 240 | 0.9 | 3.5 | 0.00 | 0.21 | 0.17 | 94 | 1017.2 |
| 20260506060442 | 51 | 0 | 0.0 | 3.5 | 0.00 | 0.21 | 0.17 | 94 | 1017.2 |
| 20260506051154 | 52 | 0 | 0.0 | 1.7 | 0.00 | 0.25 | 0.17 | 91 | 1016.9 |
| 20260506050702 | 53 | 233 | 0.0 | 0.9 | 0.00 | 0.25 | 0.17 | 91 | 1016.9 |
| 20260506044427 | 53 | 0 | 0.0 | 0.9 | 0.00 | 0.28 | 0.17 | 89 | 1016.6 |
| 20260506043928 | 54 | 0 | 0.0 | 0.9 | 0.00 | 0.28 | 0.17 | 89 | 1016.5 |
| 20260506043428 | 54 | 228 | 0.0 | 2.6 | 0.00 | 0.28 | 0.17 | 88 | 1016.5 |
| 20260506043153 | 54 | 0 | 0.0 | 2.6 | 0.00 | 0.29 | 0.17 | 88 | 1016.4 |
| 20260506042428 | 54 | 0 | 0.0 | 1.7 | 0.00 | 0.29 | 0.17 | 87 | 1016.3 |
| 20260506041928 | 55 | 0 | 0.0 | 1.7 | 0.00 | 0.30 | 0.17 | 87 | 1016.3 |
| 20260506041428 | 55 | 0 | 0.0 | 1.7 | 0.00 | 0.30 | 0.17 | 87 | 1016.2 |
| 20260506040926 | 55 | 271 | 0.0 | 1.7 | 0.00 | 0.31 | 0.17 | 86 | 1016.2 |
| 20260506040422 | 55 | 0 | 0.0 | 1.7 | 0.00 | 0.31 | 0.17 | 85 | 1016.2 |
| 20260506035923 | 56 | 0 | 0.9 | 1.7 | 0.00 | 0.31 | 0.17 | 85 | 1016.1 |
| 20260506035423 | 56 | 290 | 0.9 | 1.7 | 0.00 | 0.31 | 0.17 | 84 | 1016.0 |
| 20260506034922 | 56 | 280 | 0.9 | 1.7 | 0.00 | 0.31 | 0.17 | 84 | 1016.0 |
| 20260506034423 | 56 | 339 | 0.9 | 1.7 | 0.00 | 0.31 | 0.17 | 84 | 1015.9 |
| 20260506034144 | 56 | 293 | 0.9 | 1.7 | 0.00 | 0.31 | 0.17 | 84 | 1015.8 |
| 20260506033423 | 56 | 0 | 0.9 | 1.7 | 0.00 | 0.31 | 0.17 | 84 | 1015.8 |
| 20260506032920 | 56 | 277 | 0.9 | 2.6 | 0.00 | 0.31 | 0.17 | 84 | 1015.7 |
| 20260506032421 | 57 | 316 | 1.7 | 2.6 | 0.00 | 0.31 | 0.17 | 84 | 1015.6 |
| 20260506031921 | 57 | 305 | 0.9 | 2.6 | 0.00 | 0.31 | 0.17 | 84 | 1015.5 |
| 20260506031421 | 57 | 223 | 0.9 | 2.6 | 0.00 | 0.31 | 0.17 | 84 | 1015.4 |
| 20260506030921 | 57 | 293 | 0.9 | 1.7 | 0.00 | 0.31 | 0.17 | 83 | 1015.3 |
| 20260506030421 | 57 | 283 | 0.9 | 2.6 | 0.00 | 0.31 | 0.17 | 83 | 1015.2 |
| 20260506025920 | 57 | 274 | 0.9 | 2.6 | 0.00 | 0.31 | 0.17 | 82 | 1015.2 |
| 20260506025421 | 57 | 284 | 0.9 | 2.6 | 0.00 | 0.31 | 0.17 | 82 | 1015.2 |
| 20260506024922 | 57 | 50 | 0.9 | 1.7 | 0.00 | 0.31 | 0.17 | 82 | 1015.2 |
| 20260506024430 | 57 | 0 | 0.9 | 2.6 | 0.00 | 0.31 | 0.17 | 81 | 1015.1 |
| 20260506023920 | 58 | 253 | 0.9 | 2.6 | 0.00 | 0.31 | 0.17 | 81 | 1015.2 |
| 20260506023420 | 58 | 322 | 0.9 | 2.6 | 0.00 | 0.31 | 0.17 | 81 | 1015.1 |
| 20260506022919 | 58 | 0 | 1.7 | 2.6 | 0.00 | 0.31 | 0.17 | 81 | 1015.1 |
| 20260506022419 | 58 | 273 | 1.7 | 2.6 | 0.00 | 0.31 | 0.17 | 81 | 1015.0 |
| 20260506022142 | 58 | 265 | 1.7 | 2.6 | 0.00 | 0.31 | 0.17 | 81 | 1015.0 |
| 20260506021418 | 58 | 290 | 0.9 | 2.6 | 0.00 | 0.31 | 0.17 | 81 | 1015.0 |
| 20260506020918 | 58 | 0 | 0.9 | 2.6 | 0.00 | 0.31 | 0.17 | 81 | 1014.9 |
| 20260506020419 | 58 | 268 | 0.9 | 1.7 | 0.00 | 0.31 | 0.17 | 80 | 1014.8 |
| 20260506015919 | 58 | 256 | 0.9 | 1.7 | 0.00 | 0.31 | 0.17 | 81 | 1014.8 |
| 20260506015419 | 58 | 289 | 0.9 | 2.6 | 0.00 | 0.31 | 0.17 | 81 | 1014.8 |
| 20260506014919 | 58 | 262 | 0.9 | 2.6 | 0.00 | 0.31 | 0.17 | 80 | 1014.7 |
| 20260506014419 | 58 | 263 | 0.9 | 2.6 | 0.00 | 0.31 | 0.17 | 81 | 1014.6 |
| 20260506013416 | 58 | 256 | 1.7 | 3.5 | 0.00 | 0.31 | 0.17 | 81 | 1014.5 |
| 20260506012917 | 59 | 277 | 1.7 | 4.3 | 0.00 | 0.31 | 0.17 | 79 | 1014.5 |
| 20260506012416 | 59 | 274 | 1.7 | 5.2 | 0.00 | 0.31 | 0.17 | 80 | 1014.5 |
| 20260506011916 | 59 | 263 | 1.7 | 5.2 | 0.00 | 0.31 | 0.17 | 79 | 1014.6 |
| 20260506011417 | 59 | 241 | 1.7 | 5.2 | 0.00 | 0.31 | 0.17 | 80 | 1014.6 |
| 20260506010917 | 59 | 277 | 1.7 | 4.3 | 0.00 | 0.31 | 0.17 | 80 | 1014.7 |
| 20260506010417 | 59 | 251 | 1.7 | 5.2 | 0.00 | 0.31 | 0.17 | 80 | 1014.7 |
| 20260506005917 | 59 | 270 | 1.7 | 5.2 | 0.00 | 0.31 | 0.17 | 81 | 1014.6 |
| 20260506005417 | 59 | 272 | 2.6 | 6.1 | 0.00 | 0.31 | 0.17 | 82 | 1014.6 |
| 20260506004917 | 59 | 290 | 2.6 | 6.1 | 0.00 | 0.31 | 0.17 | 81 | 1014.5 |
| 20260506004417 | 59 | 301 | 2.6 | 7.8 | 0.00 | 0.31 | 0.17 | 82 | 1014.5 |
| 20260506003917 | 59 | 282 | 2.6 | 7.8 | 0.00 | 0.31 | 0.17 | 81 | 1014.4 |
| 20260506003414 | 60 | 277 | 1.7 | 3.5 | 0.00 | 0.31 | 0.17 | 81 | 1014.4 |
| 20260506003136 | 60 | 21 | 1.7 | 6.1 | 0.00 | 0.31 | 0.17 | 81 | 1014.4 |
| 20260506002411 | 60 | 260 | 2.6 | 6.1 | 0.00 | 0.31 | 0.17 | 81 | 1014.4 |
| 20260506001912 | 60 | 285 | 2.6 | 5.2 | 0.00 | 0.31 | 0.17 | 80 | 1014.4 |
| 20260506001631 | 60 | 155 | 1.7 | 5.2 | 0.00 | 0.31 | 0.17 | 80 | 1014.3 |
| 20260506000912 | 60 | 289 | 1.7 | 5.2 | 0.00 | 0.31 | 0.17 | 80 | 1014.3 |
| 20260506000412 | 60 | 0 | 1.7 | 4.3 | 0.00 | 0.31 | 0.17 | 79 | 1014.3 |
| 20260505235912 | 60 | 269 | 1.7 | 4.3 | 0.00 | 0.31 | 0.17 | 81 | 1014.3 |
| 20260505235412 | 60 | 286 | 1.7 | 3.5 | 0.00 | 0.31 | 0.17 | 80 | 1014.3 |
| 20260505234910 | 60 | 318 | 1.7 | 3.5 | 0.00 | 0.31 | 0.17 | 80 | 1014.3 |
| 20260505234410 | 61 | 308 | 1.7 | 2.6 | 0.00 | 0.31 | 0.17 | 81 | 1014.4 |
| 20260505233909 | 61 | 286 | 1.7 | 3.5 | 0.00 | 0.31 | 0.17 | 81 | 1014.3 |
| 20260505233409 | 61 | 282 | 1.7 | 5.2 | 0.00 | 0.31 | 0.17 | 81 | 1014.3 |
| 20260505232910 | 61 | 271 | 1.7 | 5.2 | 0.00 | 0.31 | 0.17 | 80 | 1014.3 |
| 20260505232410 | 61 | 284 | 1.7 | 3.5 | 0.00 | 0.31 | 0.17 | 80 | 1014.3 |
| 20260505231911 | 61 | 282 | 1.7 | 3.5 | 0.00 | 0.31 | 0.17 | 80 | 1014.3 |
| 20260505231410 | 61 | 288 | 1.7 | 3.5 | 0.00 | 0.31 | 0.17 | 81 | 1014.4 |
| 20260505230910 | 61 | 283 | 1.7 | 2.6 | 0.00 | 0.31 | 0.17 | 81 | 1014.4 |
| 20260505230410 | 61 | 280 | 1.7 | 2.6 | 0.00 | 0.31 | 0.17 | 80 | 1014.4 |
| 20260505225910 | 61 | 301 | 1.7 | 3.5 | 0.00 | 0.31 | 0.17 | 79 | 1014.4 |
| 20260505225410 | 61 | 296 | 1.7 | 3.5 | 0.00 | 0.31 | 0.17 | 80 | 1014.4 |
| 20260505224910 | 60 | 9 | 1.7 | 2.6 | 0.00 | 0.31 | 0.17 | 79 | 1014.4 |
| 20260505224411 | 60 | 3 | 1.7 | 3.5 | 0.00 | 0.31 | 0.17 | 80 | 1014.4 |
| 20260505223907 | 60 | 310 | 0.9 | 3.5 | 0.00 | 0.31 | 0.17 | 79 | 1014.4 |
| 20260505223408 | 60 | 23 | 1.7 | 3.5 | 0.00 | 0.31 | 0.17 | 81 | 1014.4 |
| 20260505222908 | 60 | 280 | 1.7 | 3.5 | 0.00 | 0.31 | 0.17 | 81 | 1014.4 |
| 20260505222407 | 60 | 280 | 0.9 | 2.6 | 0.00 | 0.31 | 0.17 | 80 | 1014.4 |
| 20260505221907 | 61 | 290 | 0.9 | 2.6 | 0.00 | 0.31 | 0.17 | 79 | 1014.4 |
| 20260505221407 | 61 | 0 | 0.9 | 2.6 | 0.00 | 0.31 | 0.17 | 80 | 1014.4 |
| 20260505220907 | 61 | 103 | 1.7 | 2.6 | 0.00 | 0.31 | 0.17 | 81 | 1014.4 |
| 20260505220628 | 61 | 346 | 1.7 | 3.5 | 0.00 | 0.31 | 0.17 | 79 | 1014.5 |
| 20260505215409 | 61 | 290 | 1.7 | 2.6 | 0.00 | 0.31 | 0.17 | 79 | 1014.5 |
| 20260505214908 | 61 | 298 | 1.7 | 2.6 | 0.00 | 0.31 | 0.17 | 79 | 1014.5 |
| 20260505214406 | 62 | 296 | 1.7 | 3.5 | 0.00 | 0.31 | 0.17 | 80 | 1014.5 |
| 20260505213906 | 62 | 52 | 1.7 | 3.5 | 0.00 | 0.31 | 0.17 | 77 | 1014.5 |
| 20260505213403 | 62 | 280 | 1.7 | 5.2 | 0.00 | 0.31 | 0.17 | 78 | 1014.5 |
| 20260505212903 | 62 | 317 | 1.7 | 5.2 | 0.00 | 0.31 | 0.17 | 78 | 1014.5 |
| 20260505212404 | 62 | 267 | 1.7 | 4.3 | 0.00 | 0.31 | 0.17 | 78 | 1014.6 |